CW8398 Weather Reports


Display with metric or nautical units.
time (UTC)temp
F
wind
direction
speed
MPH
gust
MPH
rain 1hr
in
rain 24hr
in
rain mn
in
humidity
%
barometer
mb
20240530092305 65 289 0.0 1.0 0.00 0.00 0.00 68 1010.7
20240530091802 65 325 1.0 3.0 0.00 0.00 0.00 65 1010.7
20240530091303 65 239 0.0 3.0 0.00 0.00 0.00 69 1010.7
20240530090802 65 246 0.0 3.0 0.00 0.00 0.00 69 1010.7
20240530085803 65 175 2.0 3.0 0.00 0.00 0.00 70 1010.7
20240530085306 65 142 1.0 2.0 0.00 0.00 0.00 70 1010.7
20240530084803 65 217 1.0 3.0 0.00 0.00 0.00 68 1010.8
20240530084303 65 235 1.0 3.0 0.00 0.00 0.00 71 1010.8
20240530083802 65 28 1.0 8.0 0.00 0.00 0.00 70 1010.7
20240530083302 65 127 2.0 7.0 0.00 0.00 0.00 70 1010.7
20240530082802 65 130 3.0 8.0 0.00 0.00 0.00 70 1010.7
20240530082306 65 46 2.0 8.0 0.00 0.00 0.00 72 1010.7
20240530081802 65 40 2.0 6.0 0.00 0.00 0.00 73 1010.7
20240530081302 64 76 3.0 5.0 0.00 0.00 0.00 74 1010.7
20240530080803 64 18 2.0 6.0 0.00 0.00 0.00 75 1010.7
20240530080302 64 13 1.0 7.0 0.00 0.00 0.00 76 1010.5
20240530075802 64 48 1.0 5.0 0.00 0.00 0.00 76 1010.5
20240530075305 64 45 5.0 8.0 0.00 0.00 0.00 75 1010.5
20240530074803 64 31 1.0 6.0 0.00 0.00 0.00 75 1010.5
20240530074302 64 25 2.0 5.0 0.00 0.00 0.00 74 1010.5
20240530073802 63 102 1.0 5.0 0.00 0.00 0.00 75 1010.5
20240530073302 63 33 1.0 3.0 0.00 0.00 0.00 76 1010.5
20240530072803 62 3 2.0 5.0 0.00 0.00 0.00 76 1010.5
20240530072305 62 141 1.0 7.0 0.00 0.00 0.00 77 1010.5
20240530071802 62 26 2.0 7.0 0.00 0.00 0.00 76 1010.5
20240530071302 63 31 3.0 5.0 0.00 0.00 0.00 77 1010.5
20240530070803 62 23 2.0 3.0 0.00 0.00 0.00 77 1010.5
20240530070302 62 55 1.0 2.0 0.00 0.00 0.00 79 1010.5
20240530065803 62 12 2.0 5.0 0.00 0.00 0.00 79 1010.5
20240530065306 62 10 3.0 7.0 0.00 0.00 0.00 80 1010.5
20240530064303 62 79 2.0 3.0 0.00 0.00 0.00 81 1010.4
20240530063803 62 344 1.0 3.0 0.00 0.00 0.00 81 1010.4
20240530063302 62 197 1.0 3.0 0.00 0.00 0.00 82 1010.4
20240530062802 62 32 2.0 6.0 0.00 0.00 0.00 81 1010.4
20240530062305 62 2 2.0 5.0 0.00 0.00 0.00 81 1010.3
20240530060803 61 32 1.0 2.0 0.00 0.00 0.00 83 1010.3
20240530060302 61 225 1.0 3.0 0.00 0.00 0.00 83 1010.2
20240530055802 61 202 1.0 3.0 0.00 0.00 0.00 83 1010.2
20240530055306 61 24 1.0 3.0 0.00 0.00 0.00 83 1010.2
20240530054302 61 44 1.0 3.0 0.00 0.00 0.00 83 1010.1
20240530053302 61 5 1.0 1.0 0.00 0.00 0.00 84 1010.1
20240530052802 61 14 2.0 3.0 0.00 0.00 0.00 85 1010.1
20240530051303 60 5 0.0 3.0 0.00 0.00 0.00 86 1010.1
20240530050803 60 39 1.0 3.0 0.00 0.00 0.00 86 1010.1
20240530050303 59 102 0.0 2.0 0.00 0.00 0.00 86 1010.1
20240530045802 59 228 0.0 1.0 0.00 0.00 0.00 86 1010.1
20240530045305 59 148 0.0 1.0 0.00 0.00 0.00 87 1010.1
20240530044803 59 148 1.0 2.0 0.00 0.00 0.00 88 1010.1
20240530044303 59 86 0.0 1.0 0.00 0.00 0.00 88 1010.1
20240530043802 59 13 0.0 1.0 0.00 0.00 0.00 88 1010.1
20240530043303 58 13 0.0 2.0 0.00 0.00 0.00 88 1010.1
20240530042803 58 20 0.0 2.0 0.00 0.00 0.00 89 1010.0
20240530042305 58 129 0.0 1.0 0.00 0.00 0.00 90 1010.0
20240530041803 57 129 0.0 1.0 0.00 0.00 0.00 91 1010.0
20240530041302 57 129 0.0 1.0 0.00 0.00 0.00 92 1010.0
20240530040803 57 21 0.0 3.0 0.00 0.00 0.00 92 1010.0
20240530040302 56 159 1.0 2.0 0.00 0.00 0.00 93 1010.0
20240530035802 56 177 0.0 1.0 0.00 0.00 0.00 94 1010.0
20240530035305 56 180 1.0 1.0 0.00 0.00 0.00 94 1010.0
20240530034804 55 180 0.0 2.0 0.00 0.00 0.00 94 1010.0
20240530034303 55 180 1.0 2.0 0.00 0.00 0.00 94 1010.0
20240530033803 55 180 0.0 1.0 0.00 0.00 0.00 94 1010.0
20240530033303 55 180 0.0 2.0 0.00 0.00 0.00 94 1010.0
20240530031303 55 221 0.0 1.0 0.00 0.00 0.00 94 1010.0
20240530030303 55 221 0.0 1.0 0.00 0.00 0.00 94 1010.0
20240530025803 55 221 1.0 2.0 0.00 0.00 0.00 94 1010.0
20240530025305 55 253 0.0 1.0 0.00 0.00 0.00 94 1010.0
20240530024803 55 253 1.0 2.0 0.00 0.00 0.00 94 1010.0
20240530024302 55 263 0.0 1.0 0.00 0.00 0.00 94 1010.0
20240530023803 55 263 0.0 1.0 0.00 0.00 0.00 93 1010.0
20240530022803 55 263 0.0 1.0 0.00 0.00 0.00 93 1010.0
20240530022305 55 263 0.0 1.0 0.00 0.00 0.00 93 1010.0
20240530021803 55 263 0.0 1.0 0.00 0.00 0.00 93 1010.0
20240530021302 55 263 0.0 1.0 0.00 0.00 0.00 93 1010.0
20240530020303 55 167 0.0 1.0 0.00 0.00 0.00 93 1010.0
20240530015803 55 167 0.0 1.0 0.00 0.00 0.00 93 1010.0
20240530015305 55 167 0.0 1.0 0.00 0.00 0.00 93 1010.0
20240530014803 54 167 0.0 0.0 0.00 0.00 0.00 93 1009.8
20240530014303 54 167 0.0 1.0 0.00 0.00 0.00 93 1009.8
20240530013802 54 167 0.0 0.0 0.00 0.00 0.00 92 1009.8
20240530012803 54 167 0.0 0.0 0.00 0.00 0.00 92 1009.8
20240530012304 54 167 0.0 0.0 0.00 0.00 0.00 92 1009.8
20240530011802 54 167 0.0 0.0 0.00 0.00 0.00 91 1009.8
20240530011303 55 167 0.0 0.0 0.00 0.00 0.00 91 1009.8
20240530010802 55 167 0.0 0.0 0.00 0.00 0.00 91 1009.8
20240530010303 55 167 0.0 0.0 0.00 0.00 0.00 91 1009.8
20240530004303 56 167 0.0 0.0 0.00 0.00 0.00 90 1009.8
20240530003302 56 167 0.0 0.0 0.00 0.00 0.00 90 1009.8
20240530002803 56 167 0.0 0.0 0.00 0.00 0.00 90 1010.0
20240530001803 56 167 0.0 0.0 0.00 0.00 0.00 90 1010.0
20240530001303 56 167 0.0 0.0 0.00 0.00 0.00 90 1010.0
20240530000802 56 167 0.0 0.0 0.00 0.00 0.00 90 1010.0
20240529235803 56 167 0.0 0.0 0.00 0.00 0.00 90 1010.0
20240529235305 56 167 0.0 0.0 0.00 0.00 0.00 90 1010.0
20240529234803 56 167 0.0 0.0 0.00 0.00 0.00 91 1010.4
20240529234304 56 167 0.0 0.0 0.00 0.00 0.00 91 1010.4
20240529233803 56 167 0.0 0.0 0.00 0.00 0.00 91 1010.4
20240529232803 56 167 0.0 0.0 0.00 0.00 0.00 90 1010.4
20240529232305 56 167 0.0 0.0 0.00 0.00 0.00 90 1010.4
20240529231802 56 167 0.0 0.0 0.00 0.00 0.00 90 1010.4
20240529231303 56 167 0.0 0.0 0.00 0.00 0.00 90 1010.4
20240529230803 57 167 0.0 0.0 0.00 0.00 0.00 90 1010.4
20240529225803 57 167 0.0 0.0 0.00 0.00 0.00 90 1010.4
20240529224303 56 167 0.0 1.0 0.00 0.00 0.00 90 1010.4
20240529223803 57 167 0.0 3.0 0.00 0.00 0.00 90 1010.4
20240529223304 56 167 1.0 3.0 0.00 0.00 0.00 90 1010.4
20240529222803 56 167 0.0 1.0 0.00 0.00 0.00 90 1010.4
20240529222305 56 167 0.0 1.0 0.00 0.00 0.00 90 1010.4
20240529221803 56 167 0.0 1.0 0.00 0.00 0.00 90 1010.4
20240529221302 57 167 0.0 1.0 0.00 0.00 0.00 89 1010.4
20240529220303 57 167 0.0 1.0 0.00 0.00 0.00 89 1010.5
20240529215803 57 167 0.0 1.0 0.00 0.00 0.00 89 1010.5
20240529214803 57 163 1.0 2.0 0.00 0.00 0.00 89 1010.6
20240529214303 57 163 1.0 3.0 0.00 0.00 0.00 89 1010.6
20240529213303 57 169 0.0 2.0 0.00 0.00 0.00 89 1010.5
20240529212803 57 169 1.0 2.0 0.00 0.00 0.00 89 1010.5
20240529212305 56 169 1.0 2.0 0.00 0.00 0.00 90 1010.5
20240529211803 56 169 1.0 1.0 0.00 0.00 0.00 90 1010.5
20240529210803 56 169 1.0 2.0 0.00 0.00 0.00 89 1010.5
20240529210302 56 178 1.0 3.0 0.00 0.00 0.00 89 1010.5
20240529205803 56 160 1.0 3.0 0.00 0.00 0.00 89 1010.5
20240529205305 57 162 1.0 3.0 0.00 0.00 0.00 89 1010.5
20240529204803 57 160 1.0 2.0 0.00 0.00 0.00 88 1010.5
20240529204303 57 163 1.0 6.0 0.00 0.00 0.00 88 1010.5
20240529203803 57 168 2.0 3.0 0.00 0.00 0.00 88 1010.5
20240529203303 57 163 2.0 3.0 0.00 0.00 0.00 88 1010.5
20240529202305 57 163 1.0 3.0 0.00 0.00 0.00 88 1010.5
20240529201803 57 163 1.0 3.0 0.00 0.00 0.00 88 1010.3
20240529201302 57 158 1.0 2.0 0.00 0.00 0.00 88 1010.3
20240529200803 57 155 1.0 3.0 0.00 0.00 0.00 88 1010.4
20240529200303 57 160 1.0 3.0 0.00 0.00 0.00 88 1010.4
20240529195803 57 167 1.0 3.0 0.00 0.00 0.00 87 1010.4
20240529195305 57 167 1.0 2.0 0.00 0.00 0.00 87 1010.4
20240529194803 58 158 1.0 3.0 0.00 0.00 0.00 87 1010.4
20240529193803 58 159 1.0 3.0 0.00 0.00 0.00 85 1010.4
20240529192803 59 170 2.0 8.0 0.00 0.00 0.00 84 1010.3
20240529192305 59 164 2.0 8.0 0.00 0.00 0.00 84 1010.3
20240529191803 59 172 1.0 3.0 0.00 0.00 0.00 83 1010.2
20240529191303 60 196 1.0 3.0 0.00 0.00 0.00 83 1010.3
20240529190803 60 191 1.0 3.0 0.00 0.00 0.00 81 1010.0
20240529190303 60 160 2.0 6.0 0.00 0.00 0.00 80 1010.0
20240529185803 61 166 0.0 3.0 0.00 0.00 0.00 80 1010.0
20240529185305 61 166 2.0 3.0 0.00 0.00 0.00 79 1010.0
20240529184803 61 152 1.0 3.0 0.00 0.00 0.00 78 1010.0
20240529184303 61 161 2.0 3.0 0.00 0.00 0.00 77 1010.0
20240529183803 62 171 2.0 6.0 0.00 0.00 0.00 77 1009.7
20240529183303 62 181 2.0 5.0 0.00 0.00 0.00 77 1009.7
20240529181802 62 189 2.0 3.0 0.00 0.00 0.00 75 1009.7
20240529181304 63 164 2.0 6.0 0.00 0.00 0.00 75 1009.7
20240529180303 63 174 3.0 6.0 0.00 0.00 0.00 74 1009.7
20240529175803 63 163 3.0 6.0 0.00 0.00 0.00 73 1009.7
20240529175305 63 174 2.0 5.0 0.00 0.00 0.00 73 1009.5
20240529174803 64 181 3.0 6.0 0.00 0.00 0.00 73 1009.5
20240529174303 64 179 2.0 3.0 0.00 0.00 0.00 73 1009.5
20240529173803 64 201 2.0 6.0 0.00 0.00 0.00 73 1009.5
20240529172802 64 169 5.0 8.0 0.00 0.00 0.00 71 1009.4
20240529172305 64 163 3.0 8.0 0.00 0.00 0.00 72 1009.4
20240529171804 65 169 3.0 9.0 0.00 0.00 0.00 71 1009.5
20240529171303 65 169 4.0 9.0 0.00 0.00 0.00 71 1009.5
20240529170303 65 174 3.0 9.0 0.00 0.00 0.00 71 1009.6
20240529165803 65 173 2.0 8.0 0.00 0.00 0.00 70 1009.6
20240529165305 65 166 3.0 9.0 0.00 0.00 0.00 70 1009.6
20240529164803 65 161 3.0 8.0 0.00 0.00 0.00 69 1009.6
20240529164303 66 168 3.0 9.0 0.00 0.00 0.00 69 1009.6
20240529163802 66 174 3.0 9.0 0.00 0.00 0.00 68 1009.6
20240529163303 66 169 4.0 10.0 0.00 0.00 0.00 67 1009.6
20240529162802 67 180 3.0 7.0 0.00 0.00 0.00 66 1009.6
20240529162305 67 173 3.0 7.0 0.00 0.00 0.00 66 1009.6
20240529161303 67 176 5.0 12.0 0.00 0.00 0.00 66 1009.6
20240529160803 67 178 3.0 9.0 0.00 0.00 0.00 66 1009.6
20240529160303 67 178 4.0 12.0 0.00 0.00 0.00 66 1009.6
20240529155803 67 173 4.0 9.0 0.00 0.00 0.00 65 1009.6
20240529155305 67 179 5.0 10.0 0.00 0.00 0.00 65 1009.4
20240529154803 68 176 3.0 12.0 0.00 0.00 0.00 65 1009.4
20240529154303 68 183 3.0 9.0 0.00 0.00 0.00 64 1009.4
20240529153803 68 178 2.0 7.0 0.00 0.00 0.00 64 1009.7
20240529153303 68 185 3.0 8.0 0.00 0.00 0.00 65 1009.7
20240529152803 68 193 3.0 7.0 0.00 0.00 0.00 64 1009.7
20240529152305 68 162 3.0 8.0 0.00 0.00 0.00 67 1009.7
20240529151803 68 162 3.0 8.0 0.00 0.00 0.00 67 1009.7
20240529151303 68 164 3.0 10.0 0.00 0.00 0.00 67 1009.7
20240529150803 68 161 4.0 10.0 0.00 0.00 0.00 66 1009.7
20240529150304 68 163 5.0 9.0 0.00 0.00 0.00 65 1010.0
20240529145803 68 164 4.0 8.0 0.00 0.00 0.00 66 1010.0
20240529145305 68 169 5.0 8.0 0.00 0.00 0.00 67 1010.0
20240529144803 69 159 3.0 7.0 0.00 0.00 0.00 68 1010.0
20240529144303 68 159 3.0 9.0 0.00 0.00 0.00 70 1010.0
20240529143803 68 179 4.0 8.0 0.00 0.00 0.00 71 1010.0
20240529143303 68 163 3.0 8.0 0.00 0.00 0.00 71 1010.0
20240529142803 68 140 3.0 6.0 0.00 0.00 0.00 71 1010.0
20240529141803 68 186 3.0 12.0 0.00 0.00 0.00 74 1010.3
20240529141303 68 163 2.0 9.0 0.00 0.00 0.00 73 1010.3
20240529140803 69 169 2.0 10.0 0.00 0.00 0.00 73 1010.6
20240529140303 68 166 2.0 9.0 0.00 0.00 0.00 76 1010.6
20240529135803 67 171 3.0 5.0 0.00 0.00 0.00 77 1010.6
20240529135305 67 177 5.0 10.0 0.00 0.00 0.00 76 1010.6
20240529134803 67 171 6.0 9.0 0.00 0.00 0.00 75 1010.6
20240529134303 67 163 3.0 9.0 0.00 0.00 0.00 75 1010.6
20240529133803 67 192 3.0 10.0 0.00 0.00 0.00 76 1010.6
20240529133303 67 155 4.0 6.0 0.00 0.00 0.00 74 1010.6
20240529132803 67 168 3.0 10.0 0.00 0.00 0.00 76 1010.6
20240529132305 67 171 4.0 10.0 0.00 0.00 0.00 75 1010.6
20240529131803 67 177 5.0 12.0 0.00 0.00 0.00 76 1010.6
20240529131303 67 166 2.0 6.0 0.00 0.00 0.00 76 1010.6
20240529130803 67 167 3.0 6.0 0.00 0.00 0.00 76 1010.7
20240529130303 67 181 3.0 8.0 0.00 0.00 0.00 75 1010.7
20240529125804 68 181 2.0 6.0 0.00 0.00 0.00 76 1010.7
20240529125305 68 170 3.0 5.0 0.00 0.00 0.00 74 1010.7
20240529124803 68 182 1.0 3.0 0.00 0.00 0.00 75 1010.7
20240529123803 68 166 2.0 3.0 0.00 0.00 0.00 76 1010.7
20240529123303 67 195 1.0 3.0 0.00 0.00 0.00 76 1010.7
20240529122803 67 163 1.0 5.0 0.00 0.00 0.00 76 1010.7
20240529122305 67 176 2.0 5.0 0.00 0.00 0.00 79 1010.7
20240529121803 67 213 1.0 5.0 0.00 0.00 0.00 81 1010.7
20240529121304 67 170 2.0 5.0 0.00 0.00 0.00 81 1010.7
20240529120803 66 216 2.0 5.0 0.00 0.00 0.00 82 1010.7
20240529120303 66 170 1.0 3.0 0.00 0.00 0.00 84 1010.6
20240529115804 66 176 2.0 5.0 0.00 0.00 0.00 82 1010.6
20240529115305 66 193 1.0 3.0 0.00 0.00 0.00 82 1010.6
20240529114304 65 170 1.0 3.0 0.00 0.00 0.00 84 1010.6
20240529113804 65 189 1.0 3.0 0.00 0.00 0.00 84 1010.6
20240529113303 64 173 2.0 5.0 0.00 0.00 0.00 85 1010.6
20240529112803 64 192 1.0 3.0 0.00 0.00 0.00 85 1010.6
20240529112305 63 163 0.0 1.0 0.00 0.00 0.00 84 1010.6
20240529111803 63 163 1.0 2.0 0.00 0.00 0.00 84 1010.6
20240529111303 63 163 1.0 2.0 0.00 0.00 0.00 85 1010.9
20240529110804 64 212 1.0 3.0 0.00 0.00 0.00 85 1011.1
20240529110304 64 209 0.0 1.0 0.00 0.00 0.00 82 1011.1
20240529104803 65 190 1.0 5.0 0.00 0.00 0.00 79 1011.1
20240529104303 65 170 3.0 5.0 0.00 0.00 0.00 78 1011.1
20240529103303 65 178 2.0 6.0 0.00 0.00 0.00 78 1011.1
20240529102803 65 167 3.0 6.0 0.00 0.00 0.00 77 1011.1
20240529102305 65 164 2.0 6.0 0.00 0.00 0.00 77 1011.1
20240529101803 65 173 1.0 5.0 0.00 0.00 0.00 77 1011.1
20240529101303 65 167 3.0 9.0 0.00 0.00 0.00 77 1011.1
20240529100803 65 168 2.0 9.0 0.00 0.00 0.00 77 1010.9
20240529100304 65 167 1.0 3.0 0.00 0.00 0.00 76 1010.9
20240529095803 64 203 2.0 3.0 0.00 0.00 0.00 77 1010.9
20240529095305 65 161 2.0 6.0 0.00 0.00 0.00 75 1010.9
20240529094803 65 178 3.0 9.0 0.00 0.00 0.00 74 1010.9
20240529094303 66 167 5.0 10.0 0.00 0.00 0.00 72 1010.9
20240529093803 66 179 2.0 7.0 0.00 0.00 0.00 74 1010.9
20240529093303 65 177 3.0 6.0 0.00 0.00 0.00 74 1010.9
20240529092804 65 177 2.0 6.0 0.00 0.00 0.00 74 1010.7